STARLINK-31863, 59789

Orbit data source: Space-Track

STARLINK-31863, 59789 is a payload satellite owned by SpaceX/Seattle (US) in LEO that was launched on Sat, 18 May 2024 UTC via an FALCON 9 launch vehicle from the Air Force Eastern Test Range (AFETR). Payload-class satellites include a variety of spacecraft equipped with specific instruments for various scientific and technological missions. These include communications satellites like Starlink; space stations such as the ISS; scientific satellites like the Hubble; Earth observation satellites from companies like Planet Labs, Umbra, and HawkEye 360; GPS; miniature CubeSats for education and research; and military/defense satellites.

Loading next visibility...
Identifier
59789, 2024-093H
Orbit
LEO
Country
Flag of USUS
Related business
Manufacturer
SpaceX/Seattle
Mission
Operational Commercial Communications
Bus & Motor
STARLINK V2M, Unknown motor
Mass
730 kg wet, ~700 kg dry
Launch date (UTC)
2024-05-18 (2 years ago)
Launch vehicle
FALCON 9
Launch site
Air Force Eastern Test Range (AFETR)
Object type
Payload
Rocket body
Debris
Shape & HBR
Box + 2 Pan, 17.7 m
Radar Cross Section
33.884 m², Large (>1 m²)

Expand to show TLE details & history
Last TLE update: 2 days ago

TLE from 2 days ago
0 STARLINK-31863
1 59789U 24093H   26161.96303276  .00000006  00000-0  97370-5 0  9995
2 59789  43.0082  41.8617 0000860 266.0448  94.0305 15.27582174116964
Epoch: 2026-06-10T23:06Z
TLE epoch observation values (Epoch: 2026-06-10T23:06:46.030Z)
Latitude
-0.00005°
Longitude
155.85621°
Altitude
482.86 km
Speed
7.626 km/s
True Right ascension
02h 47m 26s
True Declination
0° 00' 00"
Sunlit
Object was in daylight at epoch
Visualization orbit readout
Latitude
Unknown
Longitude
Unknown
Altitude
Unknown
Speed
Unknown
Apparent Right ascension
Unknown
Apparent Declination
Unknown
Sunlit
N/A
Visualization observer readout
Local Sidereal Time
10:11:57
Azimuth
Unknown
Elevation
Unknown
Doppler factor
Unknown
Orbital elements
Apogee altitude
485.577 km
Perigee altitude
484.396 km
Semi-major axis
6,863.123 km
Eccentricity
0.00009
Inclination
43.0082°
RAAN
41.8617°
Arg. of periapsis
266.0448°
True anomaly
94.04033°
Mean anomaly
94.0305°
Eccentric anomaly
94.03542°
Mean motion
3.81734 °/min
Orbital period
94.31 mins
BSTAR
0.000009737
Loading maneuver chart data...
Computing Atmospheric mass density...
Loading historical data...
Loading historical data...
Loading historical data...
Loading historical data...
Loading historical data...
Loading historical data...
Loading historical data...

Documentation

Showing up to 5 results
|